Kalispell, MT

3:39 PM MST on December 06, 2016 (GMT -0700)
Glacier Park International

Weather History for KGPI - May, 2013

Change the Weather History Date:

Monday, May 6, 2013

  Actual Average Record
Temperature  
Mean Temperature 55 °F 49 °F  
Max Temperature 77 °F 63 °F 82 °F (1992)
Min Temperature 32 °F 35 °F 22 °F (2001)
Degree Days  
Heating Degree Days 10 16  
Month to date heating degree days 105 101  
Since 1 July heating degree days 7010 7512  
Cooling Degree Days 0 0  
Month to date cooling degree days 0 0  
Year to date cooling degree days 0 0  
Growing Degree Days 4 (Base 50)    
Moisture  
Dew Point 31 °F    
Average Humidity 47    
Maximum Humidity 82    
Minimum Humidity 12    
Precipitation  
Precipitation 0.00 in 0.05 in 0.48 in (1968)
Month to date precipitation 0.04 0.28  
Year to date precipitation 3.39 4.91  
Snow  
Snow 0.00 in - - ()
Month to date snowfall T  
Year to date snowfall 9.2  
Since 1 July snowfall 18.0  
Snow Depth 0.00 in    
Sea Level Pressure  
Sea Level Pressure 29.91 in    
Wind  
Wind Speed 4 mph (NW)    
Max Wind Speed 17 mph    
Max Gust Speed 20 mph    
Visibility 10 miles    
Events      
T = Trace of Precipitation, MM = Missing Value Source: NWS Daily Summary

Daily Weather History Graph

Daily Weather History Graph

Search for Another Location

Airport or City:

Trip Planner

Search our weather history database for the weather conditions in past years. The results will help you decide how hot, cold, wet, or windy it might be!

Date:

Astronomy

May. 06, 2013 Rise Set
Actual Time 6:09 AM MDT 8:58 PM MDT
Civil Twilight 5:33 AM MDT 9:34 PM MDT
Nautical Twilight 4:47 AM MDT 10:20 PM MDT
Astronomical Twilight 3:53 AM MDT 11:16 PM MDT
Moon 4:28 AM MDT 5:50 PM MDT
Length of Visible Light 16h 01m
Length of Day
14h 49m
Waning Crescent, 10% of the Moon is Illuminated
May 6
Waning Crescent
May 9
New
May 17
First Quarter
May 24
Full
May 31
Last Quarter

Hourly Weather History & Observations

Time (MDT) Temp. Windchill Dew Point Humidity Pressure Visibility Wind Dir Wind Speed Gust Speed Precip Events Conditions
12:55 AM 41.0 °F - 30.0 °F 65% 29.97 in 10.0 mi Calm Calm - N/A   Clear
1:55 AM 37.9 °F 33.5 °F 30.0 °F 73% 29.97 in 10.0 mi WNW 5.8 mph - N/A   Clear
2:55 AM 35.1 °F 32.2 °F 28.9 °F 78% 29.98 in 10.0 mi West 3.5 mph - N/A   Clear
3:55 AM 34.0 °F 31.0 °F 28.0 °F 79% 29.99 in 10.0 mi West 3.5 mph - N/A   Clear
4:55 AM 36.0 °F - 30.0 °F 79% 29.98 in 10.0 mi Calm Calm - N/A   Clear
5:55 AM 33.1 °F 30.0 °F 28.0 °F 82% 30.00 in 10.0 mi WNW 3.5 mph - N/A   Clear
6:55 AM 37.0 °F 34.5 °F 30.0 °F 76% 29.99 in 10.0 mi NW 3.5 mph - N/A   Clear
7:55 AM 46.9 °F - 34.0 °F 61% 29.98 in 10.0 mi NW 3.5 mph - N/A   Clear
8:55 AM 53.1 °F - 35.1 °F 50% 29.98 in 10.0 mi NNE 11.5 mph - N/A   Clear
9:55 AM 57.0 °F - 34.0 °F 42% 29.98 in 10.0 mi NE 15.0 mph - N/A   Clear
10:55 AM 62.1 °F - 35.1 °F 37% 29.96 in 10.0 mi North 8.1 mph - N/A   Clear
11:55 AM 64.0 °F - 36.0 °F 35% 29.96 in 10.0 mi East 3.5 mph - N/A   Clear
12:55 PM 68.0 °F - 35.1 °F 30% 29.93 in 10.0 mi NE 3.5 mph - N/A   Clear
1:55 PM 71.1 °F - 32.0 °F 24% 29.90 in 10.0 mi Variable 3.5 mph - N/A   Clear
2:55 PM 73.0 °F - 28.9 °F 20% 29.88 in 10.0 mi Calm Calm - N/A   Clear
3:55 PM 75.0 °F - 26.1 °F 16% 29.86 in 10.0 mi West 3.5 mph - N/A   Clear
4:55 PM 75.9 °F - 19.9 °F 12% 29.83 in 10.0 mi WSW 3.5 mph - N/A   Clear
5:55 PM 75.0 °F - 19.9 °F 13% 29.83 in 10.0 mi SSE 4.6 mph - N/A   Clear
6:55 PM 73.9 °F - 28.0 °F 18% 29.81 in 10.0 mi SSE 4.6 mph - N/A   Clear
7:55 PM 70.0 °F - 34.0 °F 27% 29.78 in 10.0 mi South 5.8 mph - N/A   Clear
8:55 PM 64.9 °F - 30.0 °F 27% 29.78 in 10.0 mi Calm Calm - N/A   Clear
9:55 PM 50.0 °F - 36.0 °F 59% 29.81 in 10.0 mi Calm Calm - N/A   Clear
10:55 PM 45.0 °F - 34.0 °F 65% 29.82 in 10.0 mi Calm Calm - N/A   Clear
11:55 PM 44.1 °F - 34.0 °F 68% 29.82 in 10.0 mi Calm Calm - N/A   Clear